◎C/2006 D1の軌道と予報位置です



 さらに上尾の門田健一氏から2月24日の観測が報告されました.氏の CCD全

光度は,17.4等でした.なお,手持ちのプログラムでは,e=1.0仮定での軌道

改良が,まだ,行なえないために,1980年代に組んだ古いプログラムを引っ張

り出して軌道改良しました.



    C/2007 D1 (LINEAR)

T 2007 Apr. 21.08663 TT                                 Nakano

q   8.7504812            (2000.0)            P               Q

                   Peri.  336.69619     -0.86437704     -0.49355030

                   Node   171.53773     +0.49851612     -0.81604362

e   1.0            Incl.   40.83858     -0.06583320     +0.30080044

From 70 observations 2007 Feb. 17-24.

Residuals in seconds of arc 

2007/                     070218 682  0.6-  0.6+    070219 703  1.4-  0.5+  

070217 704 (1.4+  2.3-)   070218 711  0.2+  0.3-    070219 703  1.6-  0.0   

070217 704  1.4+  1.5+    070218 704  0.3+  1.2-    070219 703 (2.0-  0.2+) 

070217 704  1.6+  1.1+    070218 711  0.2+  0.0     070219 300  0.3+  0.2+  

070217 704  1.1+  1.6+    070218 711  0.1+  0.1-    070219 300  0.4+  0.5-  

070217 246  0.1+  0.0     070218 704  1.6+  0.2-    070219 300  0.1+  0.9-  

070217 246  0.1-  0.4-    070218 704  0.5+  0.9+    070219 300  0.3+  0.1+  

070217 246  0.2-  0.3+    070218 704  0.0   0.1+    070219 D35  0.2+  0.0   

070217 246  0.1+  0.1-    070218 704 (1.6-  2.1+)   070219 D35  0.1-  0.0   

070217 246  0.0   0.0     070218 682  0.8-  0.4+    070219 D35  0.0   0.2+  

070217 246  0.4+  0.1+    070218 474  0.4+  0.1-    070221 349  0.4+  0.2-  

070217 246  0.5+  0.2+    070218 474  0.2+  0.4-    070221 349  0.4+  0.0   

070217 246  0.5+  0.1+    070218 473  0.2-  0.5+    070221 246  0.4+  0.5-  

070217 473 (2.6-  0.7+)   070218 473  1.2-  0.2-    070221 246  0.3+  0.4-  

070217 473 (2.2-  0.4+)   070218 473  0.4-  0.6-    070221 246  0.4+  0.3-  

070218 673  0.6+  0.4-    070218 246  0.0   0.3+    070222 850  0.2-  0.2+  

070218 673  1.0+  0.3-    070218 246  0.0   0.4+    070222 850  0.2-  0.3+  

070218 673  1.0+  0.3-    070218 246  0.3+  0.2+    070222 850  0.3+  0.3+  

070218 703  0.9-  1.6-    070218 246  0.2+  0.6+    070222 213  0.3+  0.1-  

070218 703 (3.0-  2.2-)   070218 246  0.0   0.3+    070222 213  0.7+  0.2+  

070218 703 (2.6-  0.3-)   070218 113  0.8-  0.1-    070222 213  1.0+  0.1-  

070218 734  0.2+  0.6-    070218 113  1.7-  0.6-    070223 850  0.1-  0.6+  

070218 734  0.5-  0.0     070219 734  1.9-  0.3-    070223 850  0.1-  0.5+  

070218 734  0.5-  0.1-    070219 734  0.2-  1.0-    070223 850  0.3-  0.2+  

070218 734  0.2-  0.0     070219 734  0.5-  0.1-    070224 349  0.4+  0.4+  

070218 734  0.1-  0.2-    070219 734  1.4-  0.3+    070224 349  0.2+  0.4+  

 

Date/        TT  R.A.(2000) Decl.     Delta   r     Daily motion  Mag.  Moon Age

              h    h  m       。  ,                      ,  / PA 。  m1      。

2007 Feb. 25 12  09 43.38  -06 22.6   7.818  8.756     5.3 / 318  17.5   72  .63

          26 12  09 43.14  -06 18.7   7.820  8.756     5.3 / 318  17.5   60  .73

          27 12  09 42.90  -06 14.7   7.821  8.756     5.3 / 319  17.5   48  .81

          28 12  09 42.66  -06 10.7   7.823  8.756     5.3 / 319  17.5   37  .89

     Mar.  1 12  09 42.43  -06 06.7   7.825  8.755     5.3 / 320  17.5   28  .94

           2 12  09 42.20  -06 02.6   7.827  8.755     5.3 / 320  17.5   21  .98

           3 12  09 41.97  -05 58.5   7.830  8.755     5.3 / 321  17.5   21 1.00

           4 12  09 41.75  -05 54.4   7.833  8.755     5.3 / 321  17.5   26 1.00

           5 12  09 41.52  -05 50.2   7.836  8.755     5.3 / 322  17.5   35  .98

           6 12  09 41.31  -05 46.1   7.840  8.755     5.3 / 322  17.5   45  .94

           7 12  09 41.09  -05 41.9   7.844  8.754     5.3 / 323  17.5   56  .89

           8 12  09 40.88  -05 37.7   7.848  8.754     5.2 / 324  17.5   67  .83

           9 12  09 40.67  -05 33.5   7.852  8.754     5.2 / 324  17.5   78  .75

          10 12  09 40.47  -05 29.2   7.857  8.754     5.2 / 325  17.5   90  .66

          11 12  09 40.27  -05 25.0   7.862  8.754     5.2 / 326  17.5  101  .57

          12 12  09 40.07  -05 20.7   7.867  8.754     5.2 / 326  17.5  113  .47

          13 12  09 39.88  -05 16.4   7.873  8.753     5.1 / 327  17.5  125  .36

          14 12  09 39.69  -05 12.1   7.878  8.753     5.1 / 328  17.5  137  .27

          15 12  09 39.51  -05 07.8   7.885  8.753     5.1 / 328  17.6  148  .17

          16 12  09 39.33  -05 03.5   7.891  8.753     5.0 / 329  17.6  158  .10

          17 12  09 39.15  -04 59.1   7.898  8.753     5.0 / 330  17.6  160  .04

          18 12  09 38.99  -04 54.8   7.904  8.753     5.0 / 331  17.6  154  .01

          19 12  09 38.82  -04 50.5   7.912  8.753     4.9 / 331  17.6  142  .00

          20 12  09 38.66  -04 46.1   7.919  8.752     4.9 / 332  17.6  128  .03

          21 12  09 38.51  -04 41.8   7.927  8.752     4.9 / 333  17.6  114  .09

          22 12  09 38.36  -04 37.4   7.935  8.752     4.8 / 334  17.6  101  .16

          23 12  09 38.22  -04 33.1   7.943  8.752     4.8 / 335  17.6   87  .26

          24 12  09 38.08  -04 28.8   7.951  8.752     4.8 / 336  17.6   74  .36

          25 12  09 37.95  -04 24.4   7.960  8.752     4.7 / 337  17.6   61  .47

          26 12  09 37.83  -04 20.1   7.969  8.752     4.7 / 338  17.6   49  .58

          27 12  09 37.71  -04 15.8   7.978  8.752     4.6 / 339  17.6   37  .68

          28 12  09 37.60  -04 11.5   7.987  8.752     4.6 / 340  17.6   27  .77

          29 12  09 37.49  -04 07.2   7.997  8.751     4.5 / 341  17.6   20  .85

          30 12  09 37.39  -04 02.9   8.007  8.751     4.5 / 342  17.6   19  .91

          31 12  09 37.29  -03 58.6   8.017  8.751     4.5 / 343  17.6   25  .96

     Apr.  1 12  09 37.20  -03 54.4   8.027  8.751     4.4 / 344  17.6   34  .99

NAKANO

         **** Don't distribute anyone except personal use only ****

                (C) Copyright 2007 OAA/ComputingSection

write mail from CFAD0::NAKANO on 2007-02-26 02:57:11(JST).



戻ります。